Regional Weather Roundup
Issued by NWS Cleveland, OH

Home | Current Version | Previous Version | Graphics & Text | Print | Product List | Glossary On
Versions: 1 2 3 4 5 6 7 8 9 10 11 12 13 14 15 16 17 18 19 20 21 22 23 24 25 26 27 28 29 30 31 32 33 34 35 36 37 38 39 40 41 42 43 44 45 46 47 48 49 50
000
ASUS41 KCLE 070902
RWRCLE
OHIO REGIONAL WEATHER ROUNDUP
NATIONAL WEATHER SERVICE CLEVELAND, OH
400 AM EST SUN FEB 07 2016

NOTE: "FAIR" INDICATES FEW OR NO CLOUDS BELOW 12,000 FEET WITH NO
SIGNIFICANT WEATHER AND/OR OBSTRUCTIONS TO VISIBILITY.

OHZ001>008-015>018-024>027-034-035-043-044-071000-
   NORTHWEST OHIO

CITY           SKY/WX    TMP DP  RH WIND       PRES   REMARKS
DEFIANCE       PTCLDY    31  24  75 S7        30.08F WCI  24
FINDLAY        MOCLDY    33  26  75 S10       30.09F WCI  25
TOLEDO EXPRESS MOCLDY    31  24  75 S7        30.08F WCI  24
TOLEDO EXEC    CLEAR     27  22  81 S7        30.09F WCI  19
LIMA           PTCLDY    34  25  69 S9        30.10F WCI  27
$$

OHZ009>014-019>023-028>033-038-089-071000-
   NORTHEAST OHIO

CITY           SKY/WX    TMP DP  RH WIND       PRES   REMARKS
CLE-HOPKINS    CLEAR     31  20  63 S7        30.15F WCI  24
CLE-LAKEFRONT  CLEAR     34  22  61 S9        30.12F WCI  27
CUY CO. ARPT   NOT AVBL
LORAIN-ELYRIA  CLEAR     28  20  71 S7        30.12F WCI  21
ASHTABULA      CLEAR     29  19  66 S6        30.14F WCI  23
AKRON-CANTON   CLEAR     26  17  68 S5        30.13F WCI  20
WOOSTER        CLEAR     24  19  81 S3        30.13F
MANSFIELD      CLEAR     29  21  72 S7        30.11F WCI  22
YOUNGSTOWN     CLEAR     29  16  58 S5        30.13F WCI  24
$$

OHZ042-051>053-060>062-070>072-077>081-071000-
  SOUTHWEST OHIO

CITY           SKY/WX    TMP DP  RH WIND       PRES   REMARKS
CINC-COVINGTON CLEAR     33  23  66 S7        30.15F WCI  27
CINC-LUNKEN    CLEAR     26  24  92 CALM      30.19F
HAMILTON       CLEAR     24  22  91 CALM      30.17F
DAYTON         CLEAR     33  24  69 S10       30.13F WCI  25
WRIGHT-PAT AFB CLEAR     28  22  78 SE3       30.13F
DAYTON GENERAL CLEAR     28  20  71 S6        30.14F WCI  22
WILMINGTON     CLEAR     32  23  69 SW5       30.15F WCI  27
$$

OHZ036-037-039>041-045>050-054>059-063>069-073>076-082>088-071000-
  CENTRAL AND SOUTHEAST OHIO

CITY           SKY/WX    TMP DP  RH WIND       PRES   REMARKS
COLUMBUS       CLEAR     27  20  75 CALM      30.15F
OSU AIRPORT    CLEAR     28  22  78 CALM      30.14F
BOLTON FIELD   NOT AVBL
RICKENBACK AFB NOT AVBL
NEWARK         CLEAR     22  18  85 CALM      30.15F
MARION         CLEAR     29  20  69 S8        30.12F WCI  21
LANCASTER      CLEAR     24  19  81 CALM      30.15F
ZANESVILLE     CLEAR     24  17  74 CALM      30.16F
NEW PHILLY     CLEAR     23  18  81 E3        30.16F
$$



USA.gov is the U.S. government's official web portal to all federal, state and local government web resources and services.